Tracking 21992 objects as of 27-Nov-2020
HD Live streaming from Space Station
objects crossing your sky now

GONETS M 04

Track GONETS M 04 now!
10-day predictions
GONETS M 04 is classified as:


NORAD ID: 38736
Int'l Code: 2012-041D
Perigee: 1,478.7 km
Apogee: 1,516.5 km
Inclination: 82.5 °
Period: 115.8 minutes
Semi major axis: 7868 km
RCS: 1.6842 m2 (large)
Launch date: July 28, 2012
Source: Commonwealth of Independent States (former USSR) (CIS)
Launch site: PLESETSK MISSILE AND SPACE COMPLEX (PKMTR)

Uplink (MHz):
Downlink (MHz): 435.365
Beacon (MHz):
Mode:
Call sign:
Status: Inactive


MIR is a scientific microsatellite.
aabbcc
Your satellite tracking list
Your tracking list is empty




NASA's NSSDC Master Catalog

Two Line Element Set (TLE):
1 38736U 12041D   20331.79282073  .00000050  00000-0  28546-3 0  9995
2 38736  82.4797 258.0232 0023997 160.7874 199.4121 12.43819074378207
Source of the keplerian elements: AFSPC